Visibility
13.2 14.8 15.0 14.1 8.8 15.0 15.0 15.0 15.0 15.0 15.0 9.4 5.5 6.3 10.4 10.9 15.0 15.0 11.6 10.8 12.3 11.0 13.0 15.0 15.0 15.0 15.0 15.0 15.0 15.0 15.0 15.0 15.0 15.0 15.0 15.0 13.9 15.0 15.0 14.0 15.0 15.0 15.0 15.0 15.0 13.7 0.2 15.0 15.0 7.1 10.5 15.0 15.0 15.0
14.5 14.0 15.0 7.8 9.2 15.0 15.0 15.0 15.0 15.0 15.0 15.0 8.8 11.0 14.9 15.0 15.0 15.0 3.5 6.4 15.0 14.9 14.1 15.0 15.0 15.0 15.0 15.0 15.0 15.0 15.0 15.0 15.0 15.0 15.0 15.0 15.0 15.0 15.0 15.0 15.0 15.0 15.0 13.6 15.0 14.6 15.0 15.0 15.0 15.0 15.0 15.0 15.0 15.0
13.5 14.0 8.2 3.5 11.2 15.0 15.0 15.0 15.0 15.0 15.0 15.0 15.0 15.0 15.0 15.0 15.0 15.0 6.1 15.0 15.0 15.0 15.0 15.0 15.0 15.0 15.0 15.0 15.0 15.0 15.0 15.0 15.0 15.0 15.0 15.0 15.0 15.0 15.0 9.6 15.0 15.0 15.0 15.0 15.0 14.3 15.0 15.0 15.0 15.0 15.0 15.0 15.0 15.0
13.7 9.0 8.6 3.2 9.1 15.0 15.0 15.0 15.0 15.0 13.0 15.0 15.0 15.0 15.0 15.0 15.0 10.2 8.9 15.0 15.0 15.0 15.0 15.0 15.0 15.0 15.0 15.0 15.0 15.0 15.0 15.0 15.0 15.0 15.0 15.0 15.0 15.0 15.0 15.0 15.0 15.0 15.0 15.0 15.0 15.0 15.0 15.0 15.0 15.0 15.0 15.0 15.0 15.0
15.0 5.1 4.4 13.8 15.0 15.0 15.0 15.0 15.0 15.0 15.0 15.0 15.0 15.0 15.0 15.0 15.0 14.6 15.0 15.0 15.0 15.0 15.0 15.0 15.0 15.0 15.0 15.0 15.0 15.0 15.0 15.0 15.0 15.0 15.0 15.0 15.0 15.0 15.0 15.0 15.0 15.0 15.0 15.0 15.0 15.0 15.0 15.0 15.0 15.0 15.0 15.0 15.0 15.0
15.0 6.8 6.0 15.0 14.9 15.0 15.0 15.0 15.0 15.0 10.6 15.0 15.0 15.0 15.0 15.0 14.7 15.0 0.5 15.0 15.0 15.0 15.0 15.0 15.0 15.0 15.0 15.0 15.0 15.0 15.0 15.0 15.0 15.0 15.0 15.0 15.0 15.0 15.0 15.0 15.0 15.0 15.0 15.0 15.0 15.0 15.0 15.0 15.0 15.0 15.0 15.0 15.0 15.0
11.5 5.0 14.2 9.9 14.9 15.0 15.0 15.0 15.0 15.0 15.0 15.0 15.0 15.0 15.0 15.0 15.0 15.0 15.0 15.0 15.0 15.0 15.0 15.0 15.0 15.0 15.0 15.0 15.0 15.0 15.0 15.0 15.0 15.0 15.0 15.0 15.0 15.0 15.0 15.0 15.0 15.0 15.0 15.0 15.0 15.0 15.0 15.0 15.0 15.0 15.0 15.0 15.0 15.0
3.9 5.0 15.0 12.0 15.0 15.0 15.0 15.0 15.0 15.0 15.0 15.0 15.0 15.0 15.0 15.0 15.0 15.0 15.0 15.0 15.0 14.6 15.0 15.0 3.1 15.0 15.0 15.0 15.0 15.0 15.0 15.0 15.0 15.0 15.0 15.0 15.0 15.0 15.0 15.0 15.0 15.0 15.0 15.0 15.0 15.0 15.0 15.0 15.0 15.0 15.0 15.0 15.0 15.0
4.8 15.0 15.0 15.0 9.7 15.0 15.0 15.0 15.0 15.0 15.0 15.0 15.0 15.0 15.0 15.0 15.0 15.0 15.0 15.0 15.0 15.0 15.0 15.0 15.0 15.0 15.0 15.0 15.0 15.0 15.0 15.0 15.0 15.0 15.0 15.0 15.0 15.0 15.0 15.0 15.0 15.0 15.0 15.0 15.0 15.0 15.0 15.0 15.0 15.0 15.0 15.0 15.0 15.0
13.8 15.0 15.0 15.0 15.0 15.0 15.0 15.0 15.0 15.0 15.0 15.0 15.0 3.0 0.0 15.0 15.0 15.0 14.9 14.9 14.8 15.0 15.0 15.0 15.0 15.0 15.0 15.0 15.0 15.0 15.0 15.0 15.0 15.0 15.0 15.0 15.0 15.0 15.0 15.0 15.0 15.0 15.0 15.0 15.0 15.0 15.0 15.0 15.0 15.0 15.0 15.0 15.0 15.0
15.0 15.0 15.0 15.0 15.0 15.0 15.0 14.6 15.0 15.0 15.0 15.0 15.0 5.4 15.0 15.0 15.0 10.5 0.1 15.0 15.0 15.0 15.0 15.0 15.0 15.0 15.0 15.0 15.0 15.0 15.0 15.0 15.0 15.0 15.0 15.0 15.0 15.0 15.0 15.0 15.0 15.0 15.0 15.0 15.0 15.0 15.0 15.0 15.0 15.0 15.0 15.0 15.0 15.0
15.0 15.0 15.0 15.0 15.0 15.0 10.0 15.0 15.0 15.0 15.0 15.0 15.0 15.0 15.0 15.0 15.0 1.7 15.0 15.0 15.0 15.0 15.0 15.0 15.0 15.0 15.0 15.0 15.0 15.0 15.0 15.0 11.7 15.0 15.0 15.0 15.0 15.0 15.0 15.0 15.0 15.0 15.0 15.0 15.0 15.0 15.0 15.0 15.0 15.0 15.0 15.0 15.0 15.0
15.0 15.0 15.0 15.0 15.0 15.0 15.0 15.0 15.0 15.0 15.0 15.0 15.0 4.9 3.7 13.8 9.1 15.0 15.0 15.0 15.0 15.0 15.0 15.0 0.2 15.0 15.0 15.0 5.1 15.0 7.1 15.0 15.0 15.0 15.0 15.0 15.0 15.0 15.0 15.0 15.0 15.0 15.0 15.0 15.0 15.0 15.0 15.0 15.0 15.0 15.0 15.0 15.0 15.0
15.0 15.0 15.0 15.0 15.0 15.0 15.0 15.0 15.0 15.0 15.0 15.0 1.7 15.0 3.2 15.0 15.0 2.1 13.9 14.5 15.0 15.0 15.0 15.0 15.0 15.0 15.0 1.4 0.2 15.0 15.0 15.0 15.0 15.0 15.0 15.0 15.0 15.0 15.0 15.0 15.0 15.0 15.0 15.0 13.4 15.0 15.0 15.0 15.0 15.0 15.0 15.0 15.0 15.0
15.0 15.0 15.0 15.0 15.0 15.0 15.0 15.0 15.0 15.0 15.0 5.9 10.5 13.1 15.0 10.8 14.0 12.4 15.0 15.0 15.0 15.0 15.0 15.0 15.0 15.0 15.0 11.2 15.0 15.0 15.0 15.0 15.0 15.0 14.4 15.0 15.0 15.0 15.0 15.0 5.8 8.7 15.0 9.4 15.0 15.0 15.0 15.0 15.0 15.0 15.0 15.0 15.0 15.0
14.2 15.0 15.0 15.0 15.0 15.0 15.0 15.0 15.0 15.0 15.0 15.0 15.0 9.8 10.1 14.5 1.3 0.1 0.0 0.5 15.0 15.0 8.9 15.0 15.0 15.0 15.0 15.0 15.0 15.0 15.0 15.0 15.0 15.0 15.0 15.0 15.0 6.4 15.0 0.1 11.0 0.2 0.2 0.2 15.0 15.0 15.0 15.0 15.0 15.0 15.0 15.0 15.0 15.0
15.0 12.7 15.0 15.0 15.0 15.0 15.0 15.0 15.0 15.0 15.0 9.5 5.8 1.2 0.0 0.2 0.1 0.0 0.1 14.2 15.0 15.0 0.0 15.0 15.0 15.0 15.0 15.0 15.0 15.0 13.0 14.2 15.0 15.0 15.0 15.0 15.0 13.9 15.0 0.5 0.1 0.2 0.5 15.0 15.0 15.0 15.0 15.0 15.0 15.0 15.0 6.6 15.0 15.0
15.0 15.0 15.0 15.0 15.0 15.0 15.0 15.0 15.0 15.0 4.2 0.3 1.4 1.0 1.7 0.0 0.0 0.1 1.0 15.0 15.0 12.2 14.0 15.0 15.0 15.0 15.0 15.0 15.0 15.0 15.0 15.0 15.0 15.0 15.0 15.0 15.0 15.0 15.0 15.0 15.0 15.0 15.0 15.0 15.0 15.0 15.0 15.0 15.0 15.0 15.0 15.0 15.0 15.0
15.0 15.0 15.0 15.0 15.0 15.0 15.0 15.0 15.0 12.5 2.7 0.3 0.0 5.9 15.0 0.1 4.1 7.0 0.4 10.4 11.4 15.0 15.0 15.0 6.9 15.0 15.0 11.1 14.8 15.0 15.0 15.0 15.0 15.0 0.6 15.0 15.0 15.0 15.0 15.0 15.0 15.0 15.0 15.0 15.0 15.0 15.0 15.0 15.0 15.0 15.0 15.0 15.0 15.0
15.0 15.0 15.0 15.0 15.0 15.0 15.0 15.0 15.0 13.2 0.4 1.1 5.0 6.3 14.9 2.4 0.0 0.0 0.0 15.0 15.0 9.5 10.9 15.0 0.4 0.0 0.7 0.4 13.9 15.0 15.0 15.0 15.0 15.0 15.0 15.0 15.0 15.0 15.0 15.0 15.0 15.0 15.0 15.0 15.0 15.0 15.0 15.0 15.0 15.0 15.0 15.0 15.0 15.0
15.0 15.0 15.0 15.0 15.0 15.0 15.0 15.0 15.0 15.0 15.0 11.6 15.0 15.0 1.2 0.3 0.0 0.0 15.0 15.0 0.3 14.9 0.5 7.2 15.0 5.5 15.0 9.2 15.0 15.0 15.0 15.0 15.0 15.0 15.0 15.0 15.0 15.0 15.0 15.0 15.0 15.0 15.0 15.0 15.0 15.0 15.0 15.0 15.0 15.0 15.0 15.0 15.0 15.0
15.0 15.0 15.0 15.0 15.0 15.0 15.0 15.0 15.0 15.0 15.0 15.0 15.0 15.0 15.0 0.2 2.7 15.0 15.0 6.4 0.0 2.9 15.0 15.0 15.0 15.0 15.0 0.3 15.0 15.0 15.0 15.0 15.0 15.0 15.0 15.0 15.0 15.0 15.0 15.0 15.0 15.0 15.0 15.0 15.0 12.4 15.0 15.0 15.0 15.0 15.0 15.0 15.0 3.5
15.0 15.0 15.0 15.0 11.4 15.0 15.0 15.0 15.0 15.0 15.0 15.0 15.0 15.0 14.3 10.8 15.0 15.0 11.7 8.2 10.7 15.0 15.0 15.0 15.0 15.0 15.0 15.0 15.0 15.0 15.0 15.0 15.0 15.0 15.0 15.0 15.0 15.0 15.0 15.0 15.0 15.0 11.8 6.6 14.8 0.9 13.4 13.8 15.0 15.0 11.4 10.3 0.8 0.6
15.0 15.0 11.9 15.0 15.0 15.0 15.0 15.0 15.0 15.0 15.0 15.0 15.0 15.0 15.0 15.0 15.0 15.0 13.6 8.4 12.1 15.0 15.0 15.0 15.0 15.0 15.0 15.0 15.0 15.0 15.0 15.0 15.0 15.0 15.0 15.0 15.0 15.0 15.0 15.0 15.0 11.8 5.5 12.3 14.8 1.0 1.8 1.1 4.3 0.9 0.2 0.8 0.9 1.5
15.0 14.5 15.0 15.0 15.0 14.9 15.0 15.0 15.0 15.0 15.0 15.0 15.0 15.0 14.7 15.0 15.0 15.0 14.4 0.3 4.0 13.9 14.9 15.0 15.0 15.0 15.0 14.4 14.6 15.0 15.0 15.0 15.0 15.0 15.0 15.0 15.0 15.0 15.0 15.0 15.0 15.0 14.9 6.2 0.8 0.4 0.7 0.6 0.3 0.4 4.8 2.0 1.9 0.1
15.0 15.0 15.0 15.0 15.0 14.0 14.8 4.9 11.8 12.0 15.0 15.0 14.8 15.0 15.0 15.0 15.0 14.4 0.9 4.1 1.1 1.5 2.4 2.3 15.0 1.7 3.4 15.0 1.1 11.3 14.1 15.0 11.7 15.0 15.0 15.0 15.0 0.9 1.3 9.8 10.0 2.2 1.6 0.5 3.1 0.7 3.8 6.7 1.1 4.6 1.2 0.1 0.4 1.1
15.0 15.0 15.0 15.0 15.0 15.0 13.6 14.3 14.7 9.2 13.9 6.3 12.0 15.0 13.4 15.0 10.5 0.8 15.0 8.9 1.6 13.1 15.0 15.0 15.0 15.0 1.0 8.1 15.0 15.0 15.0 15.0 10.6 12.5 15.0 15.0 7.1 3.6 0.3 0.1 0.3 0.9 7.8 2.8 2.9 14.7 5.2 2.9 1.2 1.1 0.3 0.1 0.1 1.3
15.0 15.0 10.6 15.0 15.0 15.0 15.0 15.0 15.0 15.0 9.6 2.3 15.0 4.2 2.6 0.8 0.2 0.8 0.6 6.3 15.0 15.0 13.9 15.0 15.0 15.0 15.0 15.0 6.4 12.8 2.4 5.3 14.6 15.0 15.0 15.0 9.5 3.2 0.6 0.3 0.4 5.0 1.5 0.3 0.2 0.1 0.1 0.2 0.7 1.5 6.9 2.1 1.1 4.3
15.0 15.0 15.0 15.0 15.0 15.0 15.0 9.7 1.2 13.6 15.0 15.0 4.1 0.1 4.8 12.4 2.0 0.9 8.7 15.0 15.0 15.0 1.7 0.6 1.3 3.0 2.8 6.9 2.1 0.9 0.4 0.2 0.2 0.3 0.3 0.9 1.1 0.2 1.2 1.7 1.1 0.5 0.4 0.4 1.0 6.5 15.0 15.0 15.0 10.7 5.2 2.0 4.8 15.0
15.0 15.0 11.6 10.0 15.0 10.9 1.3 10.8 1.7 9.8 15.0 15.0 15.0 15.0 14.7 2.3 2.6 14.5 2.4 2.1 0.9 0.7 3.2 2.7 2.3 0.5 0.4 0.4 0.4 0.6 1.8 1.9 5.0 0.3 0.1 3.8 0.4 0.4 1.4 1.5 1.6 4.8 7.4 14.4 10.2 10.3 15.0 15.0 15.0 15.0 15.0 15.0 15.0 15.0
15.0 15.0 12.3 13.8 3.7 2.1 2.7 12.1 15.0 15.0 15.0 11.0 12.8 2.3 0.2 1.3 0.9 3.2 4.8 1.0 0.7 1.0 0.4 0.4 4.0 0.9 0.2 0.1 0.2 0.7 0.5 0.4 0.3 0.6 2.2 1.9 1.1 0.6 0.6 6.5 15.0 15.0 15.0 15.0 15.0 15.0 15.0 15.0 15.0 15.0 15.0 15.0 15.0 15.0
1.4 0.3 0.2 0.3 0.2 4.4 15.0 4.6 2.1 1.8 1.0 5.1 0.7 6.8 5.8 0.8 0.2 0.7 2.5 0.5 0.1 1.2 0.5 0.8 2.8 0.3 0.2 0.2 0.2 0.3 0.4 0.4 0.4 0.6 1.4 0.6 0.2 0.7 14.7 15.0 15.0 15.0 15.0 15.0 15.0 15.0 15.0 15.0 15.0 15.0 15.0 15.0 15.0 15.0
0.2 0.2 0.3 0.3 0.3 0.5 1.1 0.7 1.5 1.4 9.2 2.3 0.3 2.6 0.3 0.5 0.1 0.5 3.3 1.7 0.4 0.6 0.6 0.5 0.4 0.3 0.3 0.3 0.2 0.2 0.3 0.2 0.2 0.3 0.5 3.6 15.0 15.0 15.0 15.0 15.0 15.0 15.0 15.0 15.0 15.0 15.0 15.0 15.0 15.0 15.0 15.0 15.0 15.0